Regional Weather Roundup
Issued by NWS

Home | Current Version | Previous Version | Graphics & Text | Print | Product List | Glossary Off
Versions: 1 2 3 4 5 6 7 8 9 10 11 12 13 14 15 16 17 18 19 20 21 22 23 24 25 26 27 28 29 30 31 32 33 34 35 36 37 38 39 40 41 42 43 44 45 46 47 48 49 50

000
ASUS43 KMKX 251817
RWRWI

WISCONSIN REGIONAL WEATHER ROUNDUP
NATIONAL WEATHER SERVICE MILWAUKEE/SULLIVAN WI
100 PM CDT MON MAY 25 2015

NOTE: "FAIR" INDICATES FEW OR NO CLOUDS BELOW 12,000 FEET WITH NO
SIGNIFICANT WEATHER AND/OR OBSTRUCTIONS TO VISIBILITY.

WIZ001-002-006>008-014>016-023>028-251900-
NORTHWEST WISCONSIN

CITY           SKY/WX    TMP DP  RH WIND       PRES   REMARKS
SUPERIOR ARPT  CLOUDY    49  48  98 NE12      29.69F
ASHLAND        FOG       51  51 100 N7        29.68F VSB 3/4
6HR MIN TEMP:  49; 6HR MAX TEMP:  53; 6HR PCP:  0.07;

HAYWARD        CLOUDY    61  58  90 SW3       29.68S
6HR MIN TEMP:  58; 6HR MAX TEMP:  61; 6HR PCP:  0.09;

SIREN          CLOUDY    61  60  95 SW3       29.68S
CUMBERLAND     CLOUDY    63  59  88 W6        29.68F
RICE LAKE      CLOUDY    65  60  85 S8        29.70S
CHETEK         CLOUDY    64  62  94 S7        29.69S
LADYSMITH      CLOUDY    64  63  97 SW8       29.71S
EAU CLAIRE     CLOUDY    68  60  75 SW16G22   29.71R
6HR MIN TEMP:  58; 6HR MAX TEMP:  68; 6HR PCP: TRACE;

MENOMONIE      CLOUDY    67  61  79 S13       29.71R
NEW RICHMOND   PTSUNNY   64  60  86 SW14G22   29.71R
OSCEOLA        CLOUDY    65  63  93 SW14      29.73R
$$

WIZ003>005-009-010-017-018-251900-
NORTH CENTRAL WISCONSIN

CITY           SKY/WX    TMP DP  RH WIND       PRES   REMARKS
MANITOWISH WTR RAIN      61  61 100 W5        29.68S
ARBOR VITAE    CLOUDY    63  61  94 SW8       29.69S
WOODRUFF       CLOUDY    63  61  94 SW8       29.69S
RHINELANDER    CLOUDY    63  61  93 SW9       29.71S
6HR MIN TEMP:  57; 6HR MAX TEMP:  63; 6HR PCP:  0.14;

EAGLE RIVER    LGT RAIN  60  60 100 S6        29.69S
LAND O LAKES   RAIN      60  59  97 SE5       29.70F
PHILLIPS       CLOUDY    62  60  96 SW9       29.69R
TOMAHAWK       CLOUDY    63  60  88 SW7       29.71R
MEDFORD        CLOUDY    65  61  87 SW10      29.71F
MERRILL        CLOUDY    65  63  91 W10G18    29.72R
$$

WIZ029-030-035-036-043>047-251900-
CENTRAL WISCONSIN

CITY           SKY/WX    TMP DP  RH WIND       PRES   REMARKS
WAUSAU         CLOUDY    68  62  81 W15G21    29.70S
6HR MIN TEMP:  59; 6HR MAX TEMP:  68; 6HR PCP:  0.17;

MOSINEE        CLOUDY    70  64  83 SW14      29.72
MARSHFIELD     CLOUDY    68  60  75 SW16G28   29.73R
6HR MIN TEMP:  62; 6HR MAX TEMP:  70; 6HR PCP:  0.02;

STEVENS POINT  CLOUDY    66  62  84 W13       29.73S
WAUPACA        PTSUNNY   73  66  78 SW15      29.73F
WAUTOMA        NOT AVBL
WISC RAPIDS    CLOUDY    70  61  73 W13       29.75S
6HR MIN TEMP:  63; 6HR MAX TEMP:  71; 6HR PCP:  0.08;

CAMP DOUGLAS   NOT AVBL
$$

WIZ011>013-019>022-031-037>040-048>050-251900-
NORTHEAST WISCONSIN

CITY           SKY/WX    TMP DP  RH WIND       PRES   REMARKS
ANTIGO         RAIN      61  61  99 SW7       29.72S
SHAWANO        CLOUDY    66  65  96 SW7       29.72R FOG
OCONTO         CLOUDY    70  68  93 W15G21    29.70R
STURGEON BAY   CLOUDY    64  59  82 S10       29.74R
6HR MIN TEMP:  55; 6HR MAX TEMP:  64;

GREEN BAY      CLOUDY    71  65  81 SW13G22   29.73S
6HR MIN TEMP:  60; 6HR MAX TEMP:  71; 6HR PCP:  0.03;

MANITOWOC      NOT AVBL
APPLETON       PTSUNNY   72  64  78 SW22G31   29.75S
CLINTONVILLE   CLOUDY    68  64  88 SW12      29.72R
OSHKOSH        PTSUNNY   72  62  71 SW13G21   29.74F
6HR MIN TEMP:  65; 6HR MAX TEMP:  73; 6HR PCP:  0.01;

$$

WIZ032>034-041-042-053>061-251900-
SOUTHWEST WISCONSIN

CITY           SKY/WX    TMP DP  RH WIND       PRES   REMARKS
LA CROSSE      PTSUNNY   77  60  55 SW17G28   29.74S
6HR MIN TEMP:  65; 6HR MAX TEMP:  77; 6HR PCP: TRACE;

SPARTA         CLOUDY    71  59  66 SW12G20   29.76R
VIROQUA        CLOUDY    69  64  85 SW17G25   29.79R
BOSCOBEL       PTSUNNY   73  63  70 SW13      29.80R
6HR MIN TEMP:  66; 6HR MAX TEMP:  74; 6HR PCP:  0.04;

PRAIRIE DU CHI PTSUNNY   72  63  72 SW10G18   29.80S
PLATTEVILLE    CLOUDY    70  65  84 SW14      29.84S
$$

WIZ056-057-062-063-064-067-068-251900-
SOUTH CENTRAL WISCONSIN

CITY           SKY/WX    TMP DP  RH WIND       PRES   REMARKS
REEDSBURG      CLOUDY    69  63  80 SW12G23   29.79R
BARABOO/DELLS  CLOUDY    69  62  78 SW13G21   29.80R
LONE ROCK      PTSUNNY   72  63  73 SW16      29.81R
MINERAL POINT  CLOUDY    70  63  78 SW15G23   29.83S
MADISON        PTSUNNY   72  61  68 SW10G18   29.81R
6HR MIN TEMP:  66; 6HR MAX TEMP:  72; 6HR PCP:  0.03;

MIDDLETON      PTSUNNY   73  62  68 SW15G24   29.82R
WATERTOWN      PTSUNNY   72  67  83 SW12G25   29.80S
MONROE         CLOUDY    70  63  78 SW21G28   29.86R
JANESVILLE     NOT AVBL
$$

WIZ051-052-058>065-066-070>072-251900-
SOUTHEAST WISCONSIN

CITY           SKY/WX    TMP DP  RH WIND       PRES   REMARKS
MILWAUKEE      PTSUNNY   75  60  59 SW18G26   29.83R
6HR MIN TEMP:  60; 6HR MAX TEMP:  76; 6HR PCP:  0.01;

WAUKESHA       PTSUNNY   70  63  78 SW16G23   29.84R
MILWAUKEE/TIMM PTSUNNY   73  59  60 SW21G26   29.82S
RACINE         CLOUDY    75  62  64 SW16G25   29.85S
6HR MIN TEMP:  59; 6HR MAX TEMP:  75; 6HR PCP:  0.08;

BURLINGTON     LGT RAIN  67  61  80 SW17G29   29.85R
KENOSHA        PTSUNNY   75  64  68 W18G32    29.85R
6HR MIN TEMP:  67; 6HR MAX TEMP:  75; 6HR PCP:  0.07;

FOND DU LAC    LGT RAIN  69  64  84 SW12      29.77R
6HR MIN TEMP:  66; 6HR MAX TEMP:  72; 6HR PCP:  0.04;

SHEBOYGAN      PTSUNNY   74  63  68 SW21G29   29.77S
6HR MIN TEMP:  56; 6HR MAX TEMP:  75;

WEST BEND      CLOUDY    73  61  64 SW17G25   29.80R
JUNEAU         CLOUDY    68  64  86 SW17      29.82R
$$

LSZ147-162-251900-
LAKE SUPERIOR

STATION/POSITION TIME  TEMP    WIND        PRES    WAVE
                       AIR SEA DIR/SP/G            HT/PER
                 (UTC) (F)     (DEG/KT/KT) (MB)    (FT/S)
W MID LAKE BUOY  1650   42 36   40/ 16/ 19 1060.0F   3/ 4
DEVILS ISLAND    1700   44      60/ 23/ 26 1056.0F
PORT WING        1740   44      20/ 12/ 14 1054.0F
SAXON HARBOR     1740   47        CALM     1047.0S
$$

LMZ867-665-643>646-251900-
LAKE MICHIGAN

STATION/POSITION TIME  TEMP    WIND        PRES    WAVE
                       AIR SEA DIR/SP/G            HT/PER
                 (UTC) (F)     (DEG/KT/KT) (MB)    (FT/S)
CHAMBERS ISLAND  1700   60     150/  7/ 16 1058.0F
N MID LAKE BUOY  1650   46 37  190/ 16/ 19 1072.0F   2/ 3
NORTHPORT PIER   1700   53     160/  8/ 16 1064.0F
SISTER BAY       1617   58     180/ 15/ 22   N/A
KEWAUNEE LAKESHO 1700   49     180/ 17/ 19 1062.0F
SHEBOYGAN LAKESH 1700   51     160/ 21/ 21 1083.0R
PORT WASHINGTON  1740          240/  8/ 15   N/A
ATWATER BUOY     1700   68 46  230/ 12/ 19   N/A
MILWAUKEE LAKESH 1700   72     230/ 20/ 26   N/A
S MID LAKE BUOY  1650   47 38  210/ 10/ 14   N/A     2/ 4
KENOSHA   LAKESH 1700   73     240/ 15/ 24   N/A
$$

TC  - TEMPERATURE IN CELSIUS
VSB - VISIBILITY IN STATUTE MILES
WCI - WIND CHILL INDEX
HX  - HEAT INDEX



USA.gov is the U.S. government's official web portal to all federal, state and local government web resources and services.